Weather History for Graham, TX

Change the Weather History Date:

Tuesday, March 5, 2013

  Actual Average (KMWL) Record (KMWL)
Temperature  
Mean Temperature 43 °F -  
Max Temperature 55 °F 61 °F 91 °F (2009)
Min Temperature 28 °F 39 °F 28 °F (2002)
Degree Days  
Heating Degree Days 22    
Moisture  
Dew Point 19 °F    
Average Humidity 37    
Maximum Humidity 64    
Minimum Humidity 19    
Precipitation  
Precipitation 0.00 in - - ()
Sea Level Pressure  
Sea Level Pressure 30.31 in    
Wind  
Wind Speed 18 mph (NNW)    
Max Wind Speed 31 mph    
Max Gust Speed 47 mph    
Visibility 10 miles    
Events      
Averages and records for this station are not official NWS values.
T = Trace of Precipitation, MM = Missing Value Source: NWS Daily Summary

Daily Weather History Graph

Daily Weather History Graph

Search for Another Location

Airport:

Trip Planner

Search our weather history database for the weather conditions in past years. The results will help you decide how hot, cold, wet, or windy it might be!

Date:

Astronomy

Mar. 05, 2013 Rise Set
Actual Time 6:57 AM CST 6:34 PM CST
Civil Twilight 6:32 AM CST 6:59 PM CST
Nautical Twilight 6:03 AM CST 7:28 PM CST
Astronomical Twilight 5:34 AM CST 7:56 PM CST
Moon 1:57 AM CST (3/5) 12:28 PM CST (3/5)
Length of Visible Light 12h 27m
Length of Day
11h 37m
Last Quarter, 40% of the Moon is Illuminated
Mar 5
Last Quarter
Mar 11
New
Mar 19
First Quarter
Mar 27
Full
Apr 2
Last Quarter

Hourly Weather History & Observations

Time (CST) Temp. Windchill Dew Point Humidity Pressure Visibility Wind Dir Wind Speed Gust Speed Precip Events Conditions
12:15 AM 47.3 °F - 35.6 °F 64% 29.98 in 10.0 mi North 26.5 mph 40.3 mph N/A   Scattered Clouds
12:35 AM 47.3 °F - 34.9 °F 62% 30.03 in 10.0 mi NNW 29.9 mph 42.6 mph N/A   Scattered Clouds
12:55 AM 47.3 °F - 34.3 °F 61% 30.02 in 10.0 mi North 31.1 mph 42.6 mph N/A   Scattered Clouds
1:15 AM 46.6 °F - 34.3 °F 62% 30.06 in 10.0 mi NNW 29.9 mph 43.7 mph N/A   Scattered Clouds
1:35 AM 46.4 °F 37.4 °F 34.7 °F 64% 30.07 in 10.0 mi North 28.8 mph 41.4 mph N/A   Scattered Clouds
2:15 AM 45.9 °F 37.0 °F 34.0 °F 63% 30.11 in 10.0 mi NNW 26.5 mph 32.2 mph N/A   Scattered Clouds
2:55 AM 44.8 °F 36.4 °F 33.4 °F 64% 30.14 in 10.0 mi NNW 21.9 mph 31.1 mph N/A   Clear
3:15 AM 44.4 °F 35.5 °F 32.9 °F 64% 30.16 in 10.0 mi North 24.2 mph 32.2 mph N/A   Scattered Clouds
3:35 AM 44.1 °F 35.7 °F 31.6 °F 62% 30.16 in 10.0 mi North 20.7 mph 47.2 mph N/A   Scattered Clouds
3:55 AM 43.2 °F 34.7 °F 31.1 °F 62% 30.17 in 10.0 mi North 19.6 mph 27.6 mph N/A   Clear
4:15 AM 42.8 °F 35.1 °F 30.2 °F 61% 30.18 in 10.0 mi North 16.1 mph 25.3 mph N/A   Clear
5:15 AM 41.4 °F 34.3 °F 28.2 °F 60% 30.22 in 10.0 mi NNW 12.7 mph 17.3 mph N/A   Clear
5:35 AM 41.4 °F 33.0 °F 26.6 °F 56% 30.23 in 10.0 mi NNW 17.3 mph - N/A   Clear
6:15 AM 41.0 °F 33.1 °F 24.8 °F 53% 30.26 in 10.0 mi NNW 15.0 mph - N/A   Scattered Clouds
6:35 AM 41.0 °F 34.3 °F 24.4 °F 52% 30.28 in 10.0 mi NNW 11.5 mph - N/A   Clear
7:15 AM 39.6 °F 32.5 °F 25.5 °F 57% 30.29 in 10.0 mi NNW 11.5 mph - N/A   Clear
7:35 AM 40.1 °F 33.2 °F 23.0 °F 51% 30.30 in 10.0 mi NNW 11.5 mph 17.3 mph N/A   Clear
7:55 AM 41.9 °F 34.6 °F 18.7 °F 39% 30.32 in 10.0 mi NW 13.8 mph - N/A   Clear
8:15 AM 43.2 °F 34.7 °F 15.3 °F 32% 30.33 in 10.0 mi NNW 19.6 mph 25.3 mph N/A   Clear
8:35 AM 44.1 °F 35.4 °F 14.2 °F 30% 30.35 in 10.0 mi NNW 21.9 mph 25.3 mph N/A   Clear
8:55 AM 44.4 °F 35.5 °F 13.1 °F 28% 30.36 in 10.0 mi North 24.2 mph 29.9 mph N/A   Clear
9:15 AM 45.0 °F 36.9 °F 12.7 °F 27% 30.37 in 10.0 mi NNW 20.7 mph 26.5 mph N/A   Clear
9:35 AM 45.5 °F 37.3 °F 12.4 °F 26% 30.38 in 10.0 mi NNW 21.9 mph 31.1 mph N/A   Clear
9:55 AM 45.9 °F 38.0 °F 12.6 °F 26% 30.38 in 10.0 mi North 20.7 mph 27.6 mph N/A   Clear
10:15 AM 46.4 °F 39.2 °F 11.3 °F 24% 30.39 in 10.0 mi North 18.4 mph 31.1 mph N/A   Clear
10:35 AM 47.5 °F - 13.5 °F 26% 30.40 in 10.0 mi NNW 15.0 mph - N/A   Clear
10:55 AM 49.1 °F - 14.2 °F 25% 30.40 in 10.0 mi NNW 16.1 mph 25.3 mph N/A   Clear
11:15 AM 48.9 °F - 14.2 °F 25% 30.40 in 10.0 mi North 17.3 mph 24.2 mph N/A   Clear
11:35 AM 48.9 °F - 14.0 °F 25% 30.41 in 10.0 mi NW 18.4 mph 25.3 mph N/A   Clear
12:15 PM 50.0 °F - 13.8 °F 24% 30.40 in 10.0 mi NW 18.4 mph 25.3 mph N/A   Clear
12:35 PM 51.6 °F - 12.7 °F 21% 30.39 in 10.0 mi North 18.4 mph 24.2 mph N/A   Clear
12:55 PM 51.6 °F - 13.6 °F 22% 30.38 in 10.0 mi NNW 18.4 mph 28.8 mph N/A   Clear
1:15 PM 51.8 °F - 12.9 °F 21% 30.38 in 10.0 mi NNW 13.8 mph 27.6 mph N/A   Clear
1:35 PM 52.9 °F - 13.5 °F 21% 30.37 in 10.0 mi NNW 18.4 mph 24.2 mph N/A   Clear
1:55 PM 53.8 °F - 14.5 °F 21% 30.36 in 10.0 mi NW 16.1 mph 23.0 mph N/A   Clear
2:15 PM 54.0 °F - 14.0 °F 21% 30.35 in 10.0 mi North 13.8 mph 20.7 mph N/A   Clear
2:35 PM 54.5 °F - 13.5 °F 20% 30.35 in 10.0 mi NNW 12.7 mph 21.9 mph N/A   Clear
2:55 PM 54.5 °F - 14.2 °F 20% 30.35 in 10.0 mi NW 13.8 mph 24.2 mph N/A   Clear
3:15 PM 55.4 °F - 14.2 °F 20% 30.34 in 10.0 mi NW 10.4 mph 21.9 mph N/A   Clear
3:35 PM 55.2 °F - 14.7 °F 20% 30.33 in 10.0 mi NW 13.8 mph 17.3 mph N/A   Clear
3:55 PM 55.2 °F - 13.8 °F 19% 30.33 in 10.0 mi North 15.0 mph - N/A   Clear
4:15 PM 54.7 °F - 14.2 °F 20% 30.33 in 10.0 mi NNW 12.7 mph - N/A   Clear
4:35 PM 54.9 °F - 13.8 °F 20% 30.33 in 10.0 mi NNW 15.0 mph 18.4 mph N/A   Clear
4:55 PM 54.9 °F - 13.3 °F 19% 30.33 in 10.0 mi NW 13.8 mph 19.6 mph N/A   Clear
5:15 PM 54.5 °F - 13.6 °F 20% 30.33 in 10.0 mi NW 11.5 mph 19.6 mph N/A   Clear
5:35 PM 53.8 °F - 13.8 °F 21% 30.33 in 10.0 mi NNW 11.5 mph 18.4 mph N/A   Clear
5:55 PM 52.7 °F - 12.7 °F 20% 30.33 in 10.0 mi NW 12.7 mph - N/A   Clear
6:15 PM 51.6 °F - 12.7 °F 21% 30.34 in 10.0 mi NNW 9.2 mph - N/A   Clear
6:35 PM 49.1 °F - 13.1 °F 24% 30.34 in 10.0 mi NNW 4.6 mph - N/A   Clear
6:55 PM 46.2 °F - 14.0 °F 27% 30.34 in 10.0 mi Calm Calm - N/A   Clear
7:15 PM 46.0 °F - 14.0 °F 28% 30.34 in 10.0 mi Calm Calm - N/A   Clear
7:35 PM 45.9 °F - 14.0 °F 28% 30.34 in 10.0 mi Calm Calm - N/A   Clear
7:55 PM 44.6 °F - 14.4 °F 30% 30.34 in 10.0 mi Calm Calm - N/A   Clear
8:15 PM 43.9 °F - 14.0 °F 30% 30.35 in 10.0 mi Calm Calm - N/A   Clear
8:35 PM 43.0 °F - 14.4 °F 31% 30.35 in 10.0 mi Calm Calm - N/A   Clear
8:55 PM 41.9 °F - 14.5 °F 33% 30.36 in 10.0 mi Calm Calm - N/A   Clear
9:15 PM 39.4 °F - 15.1 °F 37% 30.36 in 10.0 mi Calm Calm - N/A   Clear
9:35 PM 35.8 °F - 16.5 °F 46% 30.36 in 10.0 mi Calm Calm - N/A   Clear
9:55 PM 35.2 °F - 15.6 °F 45% 30.36 in 10.0 mi Calm Calm - N/A   Clear
10:15 PM 34.0 °F - 16.3 °F 49% 30.37 in 10.0 mi Calm Calm - N/A   Clear
10:35 PM 34.3 °F - 15.8 °F 47% 30.37 in 10.0 mi Calm Calm - N/A   Clear
10:55 PM 32.4 °F - 17.6 °F 55% 30.38 in 10.0 mi Calm Calm - N/A   Clear
11:15 PM 32.9 °F - 16.5 °F 51% 30.38 in 10.0 mi Calm Calm - N/A   Clear
11:35 PM 31.3 °F - 16.7 °F 55% 30.38 in 10.0 mi Calm Calm - N/A   Clear
11:55 PM 28.9 °F - 17.2 °F 62% 30.38 in 10.0 mi Calm Calm - N/A   Clear